EST,Max TemperatureF,Mean TemperatureF,Min TemperatureF,Max Dew PointF,MeanDew PointF,Min DewpointF,Max Humidity, Mean Humidity, Min Humidity, Max Sea Level PressureIn, Mean Sea Level PressureIn, Min Sea Level PressureIn, Max VisibilityMiles, Mean VisibilityMiles, Min VisibilityMiles, Max Wind SpeedMPH, Mean Wind SpeedMPH, Max Gust SpeedMPH,PrecipitationIn, CloudCover, Events, WindDirDegrees
2013-1-1,35,32,28,32,29,23,92,78,64,30.08,30.03,29.96,10,5,2,12,4,18,0.06,8,Snow,223
2013-1-2,29,26,22,23,18,13,88,71,53,30.26,30.15,30.03,10,10,8,8,2,14,0.00,5,,314
2013-1-3,36,26,16,20,18,14,92,72,52,30.27,30.23,30.17,10,9,6,16,4,24,0.00,2,,234
2013-1-4,33,31,28,21,21,18,75,66,56,30.31,30.26,30.18,10,10,7,17,8,24,0.00,6,,229
2013-1-5,39,33,26,25,22,19,75,64,52,30.42,30.32,30.19,10,10,10,10,5,15,0.00,3,,204
2013-1-6,40,37,34,32,27,23,82,71,59,30.23,30.12,30.04,10,10,5,13,6,16,0.03,8,Snow,221
2013-1-7,35,29,23,30,25,20,96,80,64,30.50,30.39,30.24,10,8,5,10,4,15,0.00,6,,248
2013-1-8,49,35,20,28,25,19,92,69,46,30.41,30.36,30.30,10,9,5,12,3,20,0.00,0,,213
2013-1-9,48,37,26,45,37,25,100,80,60,30.51,30.35,30.28,10,8,2,16,5,21,0.02,5,,212
2013-1-10,49,38,27,36,31,26,100,71,42,30.63,30.51,30.28,10,4,0,9,3,12,0.00,0,Fog,89
2013-1-11,62,54,46,55,50,29,100,71,42,30.26,30.06,30.00,10,8,2,18,7,23,0.12,7,Rain,177
2013-1-12,68,62,55,55,54,52,93,78,63,30.11,30.05,29.96,10,10,10,13,4,17,T,4,Rain,186
2013-1-13,68,63,57,57,53,50,100,78,55,29.99,29.94,29.89,10,8,2,15,5,23,0.31,5,Rain,202
2013-1-14,59,47,34,57,38,26,100,81,62,30.37,30.19,29.93,10,9,2,15,5,26,0.09,7,Rain-Snow,338
2013-1-15,34,32,30,32,28,24,100,88,75,30.38,30.22,30.04,10,7,1,14,6,17,0.40,8,Rain-Snow,1
2013-1-16,37,35,33,36,34,31,100,95,89,30.06,29.96,29.86,10,4,1,13,5,18,0.38,8,Rain,230
2013-1-17,36,34,31,31,28,26,85,78,70,30.20,30.14,30.07,10,10,8,9,2,15,0.00,5,,255
2013-1-18,34,28,21,25,14,8,85,62,38,30.53,30.40,30.19,10,10,10,17,7,24,0.00,3,,265
2013-1-19,54,44,34,18,14,6,35,29,22,30.32,30.14,29.92,10,10,10,17,9,28,0.00,1,,204
2013-1-20,47,37,27,29,17,9,53,38,23,30.15,30.02,29.88,10,10,10,18,9,33,0.00,2,,252
2013-1-21,32,23,14,19,13,-2,74,61,47,30.12,30.01,29.91,10,8,2,16,7,26,T,7,Snow,268
2013-1-22,16,12,8,1,-2,-5,63,54,44,30.33,30.24,30.11,10,9,2,15,8,22,T,5,Snow,270
2013-1-23,19,12,4,13,3,-2,91,69,46,30.36,30.23,30.06,10,8,2,12,5,18,T,6,Snow,235
2013-1-24,23,16,9,14,10,3,84,65,45,30.57,30.28,30.02,10,6,1,14,4,22,T,6,Snow,310
2013-1-25,22,16,10,19,13,1,92,73,54,30.52,30.14,29.99,10,5,0,10,3,16,T,7,Fog-Snow,130
2013-1-26,28,25,21,25,21,13,96,78,60,30.47,30.22,30.09,10,4,1,9,5,14,T,8,Snow,252
2013-1-27,35,26,16,21,16,13,84,67,49,30.55,30.46,30.32,10,10,8,7,2,12,0.00,5,,29
2013-1-28,52,42,31,52,42,21,100,82,63,30.32,30.14,30.07,10,4,2,16,6,22,0.47,8,Rain,201
2013-1-29,68,60,51,54,51,46,100,76,52,30.09,30.03,29.82,10,7,2,14,6,23,0.04,5,Rain,202
2013-1-30,74,61,48,55,51,45,93,70,46,29.79,29.48,29.27,10,8,0,30,10,46,1.11,6,Fog-Rain,196
2013-1-31,48,36,24,43,22,10,86,68,50,29.91,29.70,29.28,10,7,0,24,10,41,0.11,8,Fog-Rain-Snow,259